Weather History for Sydney, NW

Change the Weather History Date:

Thursday, March 27, 2014

  Actual Average Record
Temperature  
Mean Temperature 70 °F -  
Max Temperature 73 °F 74 °F 84 °F (1999)
Min Temperature 67 °F 58 °F 55 °F (2005)
Cooling Degree Days 5    
Growing Degree Days 20 (Base 50)    
Moisture  
Dew Point 65 °F    
Average Humidity 82    
Maximum Humidity 94    
Minimum Humidity 59    
Precipitation  
Precipitation 0.20 in 0.16 in - ()
Sea Level Pressure  
Sea Level Pressure 30.14 in    
Wind  
Wind Speed 8 mph ()    
Max Wind Speed 22 mph    
Max Gust Speed 33 mph    
Visibility 6.7 miles    
Events Rain    
Averages and records for this station are not official NWS values.
T = Trace of Precipitation, MM = Missing Value Source: Averaged Metar Reports

Daily Weather History Graph

Daily Weather History Graph

Search for Another Location

Airport:

Trip Planner

Search our weather history database for the weather conditions in past years. The results will help you decide how hot, cold, wet, or windy it might be!

Date:

Astronomy

Mar. 27, 2014 Rise Set
Actual Time 7:03 AM AEDT 6:57 PM AEDT
Civil Twilight 6:38 AM AEDT 7:22 PM AEDT
Nautical Twilight 6:09 AM AEDT 7:51 PM AEDT
Astronomical Twilight 5:40 AM AEDT 8:20 PM AEDT
Moon 2:51 AM AEDT (3/27) 4:22 PM AEDT (3/27)
Length of Visible Light 12h 44m
Length of Day
11h 54m
Waning Crescent, 18% of the Moon is Illuminated
Mar 27
Waning Crescent
Mar 31
New
Apr 7
First Quarter
Apr 15
Full
Apr 22
Last Quarter

Hourly Weather History & Observations

Time (AEDT) Temp. Dew Point Humidity Pressure Visibility Wind Dir Wind Speed Gust Speed Precip Events Conditions
12:00 AM 70 °F 68 °F 92% 30.21 in 7 mi NNE 10.4 mph - - Rain Light Rain Showers
12:00 AM 69.8 °F 68.0 °F 94% 30.18 in 6.2 mi NNE 10.4 mph - N/A Rain Light Rain Showers
12:30 AM 69.8 °F 68.0 °F 94% 30.18 in 6.2 mi NNE 10.4 mph - N/A   Light Drizzle
1:00 AM 69 °F 67 °F 93% 30.18 in - ENE 6.9 mph - -  
1:00 AM 69.8 °F 68.0 °F 94% 30.15 in 6.2 mi ENE 6.9 mph - N/A Rain Light Rain Showers
1:30 AM 69.8 °F 68.0 °F 94% 30.15 in 6.2 mi NE 8.1 mph - N/A   Mostly Cloudy
2:00 AM 70 °F 68 °F 93% 30.17 in - North 3.5 mph - -  
2:00 AM 69.8 °F 68.0 °F 94% 30.15 in 6.2 mi North 3.5 mph - N/A   Mostly Cloudy
2:30 AM 69.8 °F 68.0 °F 94% 30.15 in 6.2 mi NW 4.6 mph - N/A   Mostly Cloudy
3:00 AM 70 °F 68 °F 93% 30.15 in 12 mi NW 2.3 mph - -   Partly Cloudy
3:00 AM 69.8 °F 68.0 °F 94% 30.15 in 6.2 mi NW 2.3 mph - N/A   Mostly Cloudy
3:30 AM 69.8 °F 68.0 °F 94% 30.12 in 6.2 mi NW 1.2 mph - N/A   Mostly Cloudy
4:00 AM 70 °F 69 °F 94% 30.14 in - NNW 4.6 mph - -  
4:00 AM 69.8 °F 68.0 °F 94% 30.12 in 6.2 mi NNW 4.6 mph - N/A   Mostly Cloudy
4:30 AM 71.6 °F 68.0 °F 88% 30.12 in 6.2 mi North 6.9 mph - N/A   Mostly Cloudy
5:00 AM 71 °F 68 °F 87% 30.14 in - North 9.2 mph - -  
5:00 AM 71.6 °F 68.0 °F 88% 30.12 in 6.2 mi North 9.2 mph - N/A Rain Light Rain Showers
5:30 AM 71.6 °F 68.0 °F 88% 30.12 in 6.2 mi North 8.1 mph - N/A Rain Light Rain Showers
6:00 AM 71 °F 68 °F 86% 30.15 in 7 mi North 5.8 mph - - Rain Light Rain
6:00 AM 71.6 °F 68.0 °F 88% 30.12 in 6.2 mi North 5.8 mph - N/A Rain Light Rain
6:30 AM 71.6 °F 68.0 °F 88% 30.12 in 6.2 mi North 8.1 mph - N/A Rain Light Rain
7:00 AM 72 °F 68 °F 84% 30.16 in - North 8.1 mph - -  
7:00 AM 71.6 °F 68.0 °F 88% 30.15 in 6.2 mi North 8.1 mph - N/A Rain Light Rain
7:30 AM 71.6 °F 68.0 °F 88% 30.15 in 5.6 mi North 8.1 mph - N/A Rain Light Rain
8:00 AM 71 °F 68 °F 88% 30.17 in - NNW 5.8 mph - -  
8:00 AM 71.6 °F 68.0 °F 88% 30.15 in 5.6 mi NNW 5.8 mph - N/A Rain Light Rain
8:30 AM 71.6 °F 68.0 °F 88% 30.15 in 5.6 mi North 3.5 mph - N/A Rain Light Rain
9:00 AM 72 °F 68 °F 83% 30.19 in 6 mi NNE 4.6 mph - - Rain Light Rain
9:00 AM 71.6 °F 68.0 °F 88% 30.18 in 5.6 mi North 4.6 mph - N/A Rain Light Rain
9:30 AM 71.6 °F 66.2 °F 83% 30.18 in 5.6 mi NW 8.1 mph - N/A Rain Light Rain
10:00 AM 70 °F 67 °F 85% 30.20 in - NW 5.8 mph - -  
10:00 AM 69.8 °F 66.2 °F 88% 30.18 in 5.6 mi NW 5.8 mph - N/A Rain Light Rain
10:30 AM 69.8 °F 66.2 °F 88% 30.18 in 5.6 mi NW 8.1 mph - N/A Rain Light Rain
11:00 AM 68 °F 64 °F 82% 30.21 in - WNW 9.2 mph - -  
11:00 AM 68.0 °F 64.4 °F 88% 30.18 in 6.2 mi WNW 9.2 mph - N/A Rain Light Rain
11:30 AM 68.0 °F 64.4 °F 88% 30.18 in 5.6 mi WNW 9.2 mph - N/A Rain Light Rain
12:00 PM 69 °F 65 °F 84% 30.20 in 7 mi NNW 8.1 mph - - Rain Light Rain
12:00 PM 68.0 °F 66.2 °F 94% 30.18 in 6.2 mi NNW 8.1 mph - N/A Rain Light Rain
12:30 PM 69.8 °F 64.4 °F 83% 30.18 in 6.2 mi North 10.4 mph - N/A Rain Light Rain
12:51 PM 69.8 °F 62.6 °F 78% 30.18 in 6.2 mi North 17.3 mph 33.4 mph N/A Rain Light Rain
1:00 PM 69 °F 62 °F 74% 30.18 in - North 21.9 mph - -  
1:00 PM 69.8 °F 62.6 °F 78% 30.15 in 6.2 mi North 21.9 mph 33.4 mph N/A Rain Light Rain
1:30 PM 68.0 °F 60.8 °F 78% 30.15 in 6.2 mi NNE 15.0 mph - N/A Rain Light Rain
2:00 PM 70 °F 61 °F 66% 30.14 in - NNE 12.7 mph - -  
2:00 PM 69.8 °F 60.8 °F 73% 30.12 in 6.2 mi NNE 12.7 mph - N/A Rain Light Rain
2:30 PM 69.8 °F 60.8 °F 73% 30.12 in 6.2 mi NNE 10.4 mph - N/A   Light Drizzle
3:00 PM 71 °F 60 °F 61% 30.13 in 16 mi North 9.2 mph - - Rain Light Drizzle
3:00 PM 69.8 °F 60.8 °F 73% 30.12 in 6.2 mi North 9.2 mph - N/A   Light Drizzle
3:30 PM 69.8 °F 60.8 °F 73% 30.09 in 6.2 mi WNW 8.1 mph - N/A   Light Drizzle
4:00 PM 70 °F 62 °F 68% 30.11 in - WNW 5.8 mph - -  
4:30 PM 69.8 °F 60.8 °F 73% 30.06 in 6.2 mi NE 5.8 mph - N/A   Mostly Cloudy
5:00 PM 72 °F 62 °F 64% 30.09 in - NNE 5.8 mph - -  
5:00 PM 73.4 °F 62.6 °F 69% 30.06 in 6.2 mi NNE 5.8 mph - N/A   Mostly Cloudy
5:30 PM 73.4 °F 64.4 °F 73% 30.06 in 6.2 mi NNE 9.2 mph - N/A   Light Drizzle
6:00 PM 73 °F 65 °F 70% 30.08 in 12 mi NNE 10.4 mph - - Rain Light Rain
6:00 PM 73.4 °F 64.4 °F 73% 30.06 in 6.2 mi NNE 10.4 mph - N/A Rain Light Rain
6:30 PM 73.4 °F 66.2 °F 78% 30.09 in 6.2 mi North 12.7 mph - N/A Rain Light Rain
7:00 PM 69 °F 65 °F 85% 30.11 in - West 9.2 mph - -  
7:00 PM 69.8 °F 66.2 °F 88% 30.09 in 6.2 mi West 9.2 mph - N/A Rain Light Rain
7:30 PM 68.0 °F 64.4 °F 88% 30.09 in 6.2 mi WNW 8.1 mph - N/A Rain Light Rain
8:00 PM 70 °F 65 °F 79% 30.12 in - NW 6.9 mph - -  
8:00 PM 69.8 °F 64.4 °F 83% 30.09 in 6.2 mi NW 6.9 mph - N/A   Mostly Cloudy
8:30 PM 69.8 °F 64.4 °F 83% 30.12 in 6.2 mi NW 8.1 mph - N/A   Mostly Cloudy
9:00 PM 69 °F 63 °F 77% 30.14 in 16 mi NW 10.4 mph - -   Overcast
9:00 PM 69.8 °F 62.6 °F 78% 30.12 in 6.2 mi NW 10.4 mph - N/A   Mostly Cloudy
9:30 PM 69.8 °F 62.6 °F 78% 30.12 in 6.2 mi NNW 9.2 mph - N/A   Mostly Cloudy
10:00 PM 70 °F 59 °F 59% 30.11 in - North 10.4 mph - -  
10:00 PM 69.8 °F 59.0 °F 68% 30.09 in 6.2 mi North 10.4 mph - N/A   Mostly Cloudy
10:30 PM 69.8 °F 59.0 °F 68% 30.09 in 6.2 mi NNE 10.4 mph - N/A   Mostly Cloudy
11:00 PM 69 °F 58 °F 60% 30.12 in - NW 9.2 mph - -  
11:00 PM 68.0 °F 59.0 °F 73% 30.09 in 6.2 mi NW 9.2 mph - N/A   Mostly Cloudy